Hourly Weather Allensbach

Today, 2 March, Tuesday

Time Temperature Precipitation Wind Pressure Humidity
00:00 +2°C° 0 mm 0 mps 732 mmHg 87%
01:00 +2°C° 0 mm 0 mps 732 mmHg 87%
02:00 +1°C° 0 mm 0 mps 732 mmHg 86%
03:00 +1°C° 0 mm 0 mps 732 mmHg 85%
04:00 +1°C° 0 mm 0 mps 732 mmHg 84%
05:00 0°C° 0 mm 0 mps 732 mmHg 82%
06:00 0°C° 0 mm 0 mps 732 mmHg 81%
07:00 0°C° 0 mm 0 mps 732 mmHg 80%
08:00 +2°C° 0 mm 0 mps 732 mmHg 72%
09:00 +5°C° 0 mm 0 mps 732 mmHg 63%
10:00 +7°C° 0 mm 0 mps 733 mmHg 55%
11:00 +9°C° 0 mm 0 mps 733 mmHg 51%
12:00 +11°C° 0 mm 0 mps 733 mmHg 46%
13:00 +13°C° 0 mm 0 mps 733 mmHg 42%
14:00 +13°C° 0 mm 0 mps 733 mmHg 43%
15:00 +13°C° 0 mm 0 mps 732 mmHg 44%
16:00 +13°C° 0 mm 0 mps 732 mmHg 46%
17:00 +10°C° 0 mm 0 mps 732 mmHg 52%
18:00 +8°C° 0 mm 0 mps 732 mmHg 58%
19:00 +6°C° 0 mm 0 mps 733 mmHg 65%
20:00 +5°C° 0 mm 0 mps 733 mmHg 66%
21:00 +4°C° 0 mm 0 mps 733 mmHg 68%
22:00 +4°C° 0 mm 0 mps 733 mmHg 70%
23:00 +3°C° 0 mm 0 mps 733 mmHg 70%

Tomorrow, 3 March, Wednesday

Time Temperature Precipitation Wind Pressure Humidity
00:00 +3°C° 0 mm 0 mps 733 mmHg 71%
01:00 +3°C° 0 mm 0 mps 733 mmHg 71%
02:00 +2°C° 0 mm 0 mps 733 mmHg 71%
03:00 +2°C° 0 mm 0 mps 732 mmHg 72%
04:00 +2°C° 0 mm 0 mps 732 mmHg 72%
05:00 +2°C° 0 mm 0 mps 732 mmHg 71%
06:00 +1°C° 0 mm 0 mps 732 mmHg 71%
07:00 +1°C° 0 mm 0 mps 732 mmHg 70%
08:00 +4°C° 0 mm 0 mps 732 mmHg 64%
09:00 +6°C° 0 mm 0 mps 732 mmHg 58%
10:00 +8°C° 0 mm 0 mps 732 mmHg 51%
11:00 +11°C° 0 mm 1 mps 732 mmHg 48%
12:00 +13°C° 0 mm 1 mps 732 mmHg 45%
13:00 +14°C° 0 mm 1 mps 731 mmHg 42%
14:00 +14°C° 0 mm 1 mps 731 mmHg 43%
15:00 +14°C° 0 mm 1 mps 730 mmHg 45%
16:00 +14°C° 0 mm 1 mps 730 mmHg 46%
17:00 +12°C° 0 mm 1 mps 730 mmHg 52%
18:00 +9°C° 0 mm 0 mps 730 mmHg 58%
19:00 +7°C° 0 mm 0 mps 730 mmHg 64%
20:00 +6°C° 0 mm 0 mps 729 mmHg 65%
21:00 +6°C° 0 mm 0 mps 729 mmHg 67%
22:00 +5°C° 0 mm 0 mps 729 mmHg 68%
23:00 +5°C° 0 mm 0 mps 729 mmHg 69%

Day after tomorrow, 4 March, Thursday

Time Temperature Precipitation Wind Pressure Humidity
00:00 +5°C° 0 mm 0 mps 728 mmHg 70%
01:00 +4°C° 0 mm 0 mps 728 mmHg 71%
02:00 +5°C° 0 mm 1 mps 728 mmHg 71%
03:00 +5°C° 0 mm 1 mps 727 mmHg 72%
04:00 +5°C° 0 mm 1 mps 727 mmHg 72%
05:00 +5°C° 0 mm 1 mps 727 mmHg 73%
06:00 +5°C° 0 mm 1 mps 726 mmHg 74%
07:00 +4°C° 0 mm 1 mps 726 mmHg 74%
08:00 +6°C° 0 mm 1 mps 726 mmHg 70%
09:00 +8°C° 0 mm 1 mps 725 mmHg 65%
10:00 +10°C° 0 mm 1 mps 725 mmHg 61%
11:00 +10°C° 0.2 mm 2 mps 725 mmHg 63%
12:00 +10°C° 0.2 mm 3 mps 724 mmHg 64%
13:00 +11°C° 0.2 mm 3 mps 724 mmHg 66%
14:00 +10°C° 0.5 mm 3 mps 724 mmHg 73%
15:00 +10°C° 0.5 mm 3 mps 723 mmHg 79%
16:00 +9°C° 0.5 mm 3 mps 722 mmHg 86%
17:00 +8°C° 0.5 mm 2 mps 722 mmHg 88%
18:00 +8°C° 0.5 mm 2 mps 722 mmHg 91%
19:00 +7°C° 0.5 mm 2 mps 722 mmHg 93%
20:00 +7°C° 0.8 mm 2 mps 722 mmHg 93%
21:00 +6°C° 0.8 mm 2 mps 722 mmHg 94%
22:00 +6°C° 0.8 mm 2 mps 722 mmHg 94%
23:00 +6°C° 0.2 mm 2 mps 722 mmHg 94%

5 March, Friday

Time Temperature Precipitation Wind Pressure Humidity
00:00 +5°C° 0.2 mm 2 mps 722 mmHg 95%
01:00 +5°C° 0.2 mm 2 mps 722 mmHg 95%
02:00 +5°C° 0.1 mm 2 mps 722 mmHg 95%
03:00 +5°C° 0.1 mm 2 mps 722 mmHg 94%
04:00 +5°C° 0.1 mm 2 mps 722 mmHg 94%
05:00 +5°C° 0.3 mm 2 mps 722 mmHg 95%
06:00 +6°C° 0.3 mm 1 mps 723 mmHg 95%
07:00 +6°C° 0.3 mm 1 mps 723 mmHg 95%
08:00 +5°C° 0.6 mm 2 mps 723 mmHg 95%
09:00 +4°C° 0.6 mm 2 mps 723 mmHg 95%
10:00 +3°C° 0.6 mm 3 mps 724 mmHg 95%
11:00 +3°C° 0.3 mm 3 mps 724 mmHg 91%
12:00 +3°C° 0.3 mm 3 mps 724 mmHg 87%
13:00 +3°C° 0.3 mm 3 mps 724 mmHg 83%
14:00 +3°C° 0.2 mm 3 mps 725 mmHg 82%
15:00 +3°C° 0.2 mm 3 mps 725 mmHg 81%
16:00 +4°C° 0.2 mm 2 mps 725 mmHg 80%
17:00 +2°C° 0.1 mm 3 mps 726 mmHg 82%
18:00 +1°C° 0.1 mm 3 mps 726 mmHg 84%
19:00 +1°C° 0.1 mm 3 mps 727 mmHg 87%
20:00 0°C° 0 mm 3 mps 728 mmHg 85%
21:00 -1°C° 0 mm 3 mps 729 mmHg 84%
22:00 -3°C° 0 mm 4 mps 729 mmHg 83%
23:00 -3°C° 0 mm 4 mps 729 mmHg 83%

6 March, Saturday

Time Temperature Precipitation Wind Pressure Humidity
00:00 -4°C° 0 mm 4 mps 730 mmHg 83%
01:00 -4°C° 0 mm 4 mps 730 mmHg 83%
02:00 -4°C° 0 mm 4 mps 730 mmHg 82%
03:00 -4°C° 0 mm 4 mps 730 mmHg 80%
04:00 -4°C° 0 mm 4 mps 730 mmHg 79%
05:00 -4°C° 0 mm 4 mps 730 mmHg 78%
06:00 -4°C° 0 mm 4 mps 730 mmHg 76%
07:00 -5°C° 0 mm 4 mps 731 mmHg 74%
08:00 -3°C° 0 mm 4 mps 731 mmHg 67%
09:00 -2°C° 0 mm 5 mps 731 mmHg 59%
10:00 -1°C° 0 mm 5 mps 731 mmHg 51%
11:00 0°C° 0 mm 5 mps 731 mmHg 47%
12:00 +1°C° 0 mm 5 mps 731 mmHg 44%
13:00 +2°C° 0 mm 5 mps 731 mmHg 41%
14:00 +3°C° 0 mm 5 mps 730 mmHg 41%
15:00 +3°C° 0 mm 5 mps 730 mmHg 42%
16:00 +3°C° 0 mm 5 mps 730 mmHg 43%
17:00 +1°C° 0 mm 4 mps 730 mmHg 48%
18:00 0°C° 0 mm 4 mps 731 mmHg 54%
19:00 -1°C° 0 mm 3 mps 731 mmHg 59%
20:00 -1°C° 0 mm 3 mps 731 mmHg 60%
21:00 -2°C° 0 mm 3 mps 731 mmHg 61%
22:00 -2°C° 0 mm 3 mps 732 mmHg 62%
23:00 -2°C° 0 mm 3 mps 732 mmHg 62%

7 March, Sunday

Time Temperature Precipitation Wind Pressure Humidity
00:00 -4°C° 0 mm 3 mps 732 mmHg 62%
01:00 -3°C° 0 mm 2 mps 732 mmHg 61%
02:00 -3°C° 0 mm 2 mps 731 mmHg 61%
03:00 -4°C° 0 mm 2 mps 731 mmHg 61%
04:00 -4°C° 0 mm 2 mps 731 mmHg 61%
05:00 -4°C° 0 mm 2 mps 731 mmHg 62%
06:00 -4°C° 0 mm 2 mps 731 mmHg 63%
07:00 -3°C° 0 mm 1 mps 731 mmHg 64%
08:00 -1°C° 0 mm 1 mps 731 mmHg 59%
09:00 +1°C° 0 mm 1 mps 731 mmHg 53%
10:00 +2°C° 0 mm 2 mps 731 mmHg 48%
11:00 +3°C° 0 mm 2 mps 730 mmHg 46%
12:00 +5°C° 0 mm 2 mps 730 mmHg 43%
13:00 +6°C° 0 mm 2 mps 730 mmHg 41%
14:00 +6°C° 0 mm 2 mps 729 mmHg 41%
15:00 +7°C° 0 mm 1 mps 729 mmHg 41%
16:00 +8°C° 0 mm 1 mps 728 mmHg 41%
17:00 +5°C° 0 mm 1 mps 728 mmHg 48%
18:00 +3°C° 0 mm 1 mps 728 mmHg 55%
19:00 +1°C° 0 mm 1 mps 728 mmHg 61%
20:00 +1°C° 0 mm 1 mps 728 mmHg 63%
21:00 0°C° 0 mm 1 mps 728 mmHg 64%
22:00 -1°C° 0 mm 1 mps 729 mmHg 65%
23:00 -1°C° 0 mm 1 mps 728 mmHg 65%
Show more